Weather History for Rock Hill, SC

Change the Weather History Date:

Friday, February 3, 2012

  Actual Average Record
Temperature  
Mean Temperature 49 °F -  
Max Temperature 57 °F 55 °F 80 °F (1989)
Min Temperature 41 °F 34 °F 15 °F (1951)
Degree Days  
Heating Degree Days 16    
Moisture  
Dew Point 32 °F    
Average Humidity 55    
Maximum Humidity 79    
Minimum Humidity 36    
Precipitation  
Precipitation 0.00 in - - ()
Sea Level Pressure  
Sea Level Pressure 30.40 in    
Wind  
Wind Speed 4 mph (ENE)    
Max Wind Speed 7 mph    
Max Gust Speed -    
Visibility 10 miles    
Events      
Averages and records for this station are not official NWS values.
T = Trace of Precipitation, MM = Missing Value Source: NWS Daily Summary

Daily Weather History Graph

Daily Weather History Graph

Search for Another Location

Airport:

Trip Planner

Search our weather history database for the weather conditions in past years. The results will help you decide how hot, cold, wet, or windy it might be!

Date:

Astronomy

Feb. 03, 2012 Rise Set
Actual Time 7:21 AM EST 5:54 PM EST
Civil Twilight 6:55 AM EST 6:21 PM EST
Nautical Twilight 6:25 AM EST 6:51 PM EST
Astronomical Twilight 5:55 AM EST 7:21 PM EST
Moon 1:59 PM EST (2/3) 3:51 AM EST (2/3)
Length of Visible Light 11h 25m
Length of Day
10h 32m
Waxing Gibbous, 81% of the Moon is Illuminated
Feb 3
Waxing Gibbous
Feb 7
Full
Feb 14
Last Quarter
Feb 21
New
Feb 29
First Quarter

Hourly Weather History & Observations

Time (EST) Temp. Windchill Dew Point Humidity Pressure Visibility Wind Dir Wind Speed Gust Speed Precip Events Conditions
12:54 AM 48.0 °F - 32.0 °F 54% 30.33 in 10.0 mi NNE 5.8 mph - N/A   Clear
1:54 AM 46.0 °F 44.8 °F 30.9 °F 56% 30.34 in 10.0 mi NE 3.5 mph - N/A   Clear
2:54 AM 46.0 °F 42.5 °F 30.9 °F 56% 30.35 in 10.0 mi NNE 6.9 mph - N/A   Clear
3:54 AM 44.1 °F 40.8 °F 30.0 °F 58% 30.37 in 10.0 mi NNE 5.8 mph - N/A   Clear
4:54 AM 46.9 °F - 30.0 °F 52% 30.38 in 10.0 mi NE 4.6 mph - N/A   Clear
5:54 AM 46.9 °F - 30.9 °F 54% 30.40 in 10.0 mi Variable 5.8 mph - N/A   Clear
6:54 AM 46.0 °F 42.5 °F 30.9 °F 56% 30.41 in 10.0 mi NNE 6.9 mph - N/A   Clear
7:54 AM 46.9 °F - 30.9 °F 54% 30.44 in 10.0 mi NE 4.6 mph - N/A   Clear
8:54 AM 50.0 °F - 32.0 °F 50% 30.45 in 10.0 mi ENE 5.8 mph - N/A   Clear
9:54 AM 51.1 °F - 32.0 °F 48% 30.46 in 10.0 mi ENE 8.1 mph 16.1 mph N/A   Clear
10:54 AM 54.0 °F - 32.0 °F 43% 30.47 in 10.0 mi East 5.8 mph - N/A   Clear
11:54 AM 55.0 °F - 32.0 °F 42% 30.46 in 10.0 mi Variable 6.9 mph - N/A   Clear
12:54 PM 55.9 °F - 30.9 °F 39% 30.44 in 10.0 mi Variable 5.8 mph - N/A   Clear
1:54 PM 57.9 °F - 30.9 °F 36% 30.42 in 10.0 mi Variable 3.5 mph - N/A   Clear
2:54 PM 57.9 °F - 30.9 °F 36% 30.41 in 10.0 mi SSW 4.6 mph - N/A   Clear
3:54 PM 57.9 °F - 30.9 °F 36% 30.40 in 10.0 mi SSW 3.5 mph - N/A   Clear
4:54 PM 55.9 °F - 32.0 °F 40% 30.39 in 10.0 mi SE 3.5 mph - N/A   Clear
5:54 PM 53.1 °F - 33.1 °F 47% 30.40 in 10.0 mi Calm Calm - N/A   Clear
6:54 PM 46.0 °F - 34.0 °F 63% 30.41 in 10.0 mi Calm Calm - N/A   Clear
7:54 PM 44.1 °F - 35.1 °F 71% 30.42 in 10.0 mi Calm Calm - N/A   Clear
8:54 PM 41.0 °F - 35.1 °F 79% 30.41 in 9.0 mi Calm Calm - N/A   Clear
9:54 PM 42.1 °F - 35.1 °F 76% 30.40 in 10.0 mi Calm Calm - N/A   Clear
10:54 PM 42.1 °F - 36.0 °F 79% 30.39 in 10.0 mi Calm Calm - N/A   Clear
11:54 PM 44.1 °F - 36.0 °F 73% 30.38 in 9.0 mi Calm Calm - N/A   Clear